Terminal Aerodrome Forecast
Issued by NWS Sterling, VA

Current Version | Previous Version | Graphics & Text | Print | Product List | Glossary On
Versions: 1 2 3 4 5 6 7 8 9 10 11 12 13 14 15 16 17 18 19 20 21 22 23
000
FTUS41 KLWX 032106 AAA
TAFIAD
TAF AMD
KIAD 032106Z 0321/0424 31005KT P6SM FEW060
     FM032300 20003KT P6SM FEW100
     FM041400 22005KT P6SM FEW050
     FM041700 21010KT P6SM SCT050=

USA.gov is the U.S. government's official web portal to all federal, state and local government web resources and services.